Location: Central Falls
(41.8900°N, 71.3929°W)
Time: 14:44:42
(UTC+00:00)

Vanguard 1 - Pass Details

Date: 04 December 2023
Orbit: 653 x 3826 km, 34.3° (Epoch: 24 February)

Event Time Altitude Azimuth Distance (km) Brightness Sun altitude
Rises 06:00:43 0° 284° (WNW) 7,914 14.5 -63.4°
Enters shadow 06:01:41 - 283° (WNW) 7,770 14.5 -63.3°
Reaches altitude 10° 06:07:23 10° 275° (W) 6,934 - -62.5°
Maximum altitude 06:24:22 28° 228° (SW) 5,070 - -59.9°
Drops below altitude 10° 06:37:48 10° 177° (S) 5,396 - -57.8°
Sets 06:42:13 0° 166° (SSE) 5,957 - -57.0°
